User: anonymous   Login
Location: Spruce Knob
(38.6995°N, 79.5330°W)
Time: 05:03:36
(UTC-05:00)
Language:

POLYITAN 1 - Orbit

View from above orbital plane
View from above orbital plane
View from above satellite
View from above satellite

Ground track
Ground track

The orbit data is extracted from the following two-line orbital elements,

1 40042U 14033AJ  24064.83029353  .00010315  00000-0  84059-3 0  9999
2 40042  98.0403  25.2341 0015216 125.7677 234.4963 14.99597158527185
Epoch (UTC): 04 March 2024 19:55:37
Eccentricity: 0.0015216
inclination: 98.0403°
perigee height: 557 km
apogee height: 579 km
right ascension of ascending node: 25.2341°
argument of perigee: 125.7677°
revolutions per day: 14.99597158
mean anomaly at epoch: 234.4963°
orbit number at epoch: 52718

The dashed part of the orbit path shows where the satellite is in the earth's shadow,  

DLR